Time,TemperatureF,DewpointF,PressureIn,WindDirection,WindDirectionDegrees,WindSpeedMPH,WindSpeedGustMPH,Humidity,HourlyPrecipIn,Conditions,Clouds,dailyrainin,SoftwareType,DateUTC
2013-12-10 00:02:00,37.0,36.0,-100.00,NNW,345,4.0,6.0,98,-99.99,,,-99.99,,2013-12-10 09:02:00,
2013-12-10 00:11:00,37.0,36.0,-100.00,NNW,345,4.0,6.0,98,-99.99,,,-99.99,,2013-12-10 09:11:00,
2013-12-10 00:21:00,37.0,36.0,-100.00,NNW,340,4.0,6.0,98,-99.99,,,-99.99,,2013-12-10 09:21:00,
2013-12-10 00:33:00,37.0,36.0,-100.00,NNW,340,4.0,6.0,98,-99.99,,,-99.99,,2013-12-10 09:33:00,
2013-12-10 00:44:00,37.0,36.0,-100.00,NNW,340,4.0,6.0,98,-99.99,,,-99.99,,2013-12-10 09:44:00,
2013-12-10 00:54:00,37.0,36.0,-100.00,NNW,345,4.0,6.0,98,-99.99,,,-99.99,,2013-12-10 09:54:00,
2013-12-10 01:03:00,37.0,36.0,-100.00,NNW,345,4.0,6.0,98,-99.99,,,-99.99,,2013-12-10 10:03:00,
2013-12-10 01:12:00,37.0,36.0,-100.00,NNW,345,4.0,6.0,98,-99.99,,,-99.99,,2013-12-10 10:12:00,
2013-12-10 01:22:00,37.0,37.0,-100.00,North,350,5.0,6.0,98,-99.99,,,-99.99,,2013-12-10 10:22:00,
2013-12-10 01:33:00,37.0,37.0,-100.00,North,350,5.0,6.0,98,-99.99,,,-99.99,,2013-12-10 10:33:00,
2013-12-10 01:42:00,37.0,37.0,-100.00,North,350,5.0,6.0,98,-99.99,,,-99.99,,2013-12-10 10:42:00,
2013-12-10 01:53:00,37.0,36.0,-100.00,NNW,345,4.0,5.0,98,-99.99,,,-99.99,,2013-12-10 10:53:00,
2013-12-10 02:02:00,37.0,36.0,-100.00,NNW,345,4.0,5.0,98,-99.99,,,-99.99,,2013-12-10 11:02:00,
2013-12-10 02:12:00,37.0,36.0,-100.00,NNW,345,4.0,5.0,98,-99.99,,,-99.99,,2013-12-10 11:12:00,
2013-12-10 02:22:00,37.0,37.0,-100.00,NNW,345,4.0,6.0,98,-99.99,,,-99.99,,2013-12-10 11:22:00,
2013-12-10 02:33:00,37.0,37.0,-100.00,NNW,345,4.0,6.0,98,-99.99,,,-99.99,,2013-12-10 11:33:00,
2013-12-10 02:43:00,37.0,37.0,-100.00,NNW,345,4.0,6.0,98,-99.99,,,-99.99,,2013-12-10 11:43:00,
2013-12-10 02:53:00,37.0,37.0,-100.00,NNW,340,4.0,6.0,98,-99.99,,,-99.99,,2013-12-10 11:53:00,
2013-12-10 03:02:00,37.0,37.0,-100.00,NNW,340,4.0,6.0,98,-99.99,,,-99.99,,2013-12-10 12:02:00,
2013-12-10 03:12:00,37.0,37.0,-100.00,NNW,340,4.0,6.0,98,-99.99,,,-99.99,,2013-12-10 12:12:00,
2013-12-10 03:22:00,37.0,37.0,-100.00,NW,320,4.0,6.0,98,-99.99,,,-99.99,,2013-12-10 12:22:00,
2013-12-10 03:32:00,37.0,37.0,-100.00,NW,320,4.0,6.0,98,-99.99,,,-99.99,,2013-12-10 12:32:00,
2013-12-10 03:42:00,37.0,37.0,-100.00,NW,320,4.0,6.0,98,-99.99,,,-99.99,,2013-12-10 12:42:00,
2013-12-10 03:52:00,37.0,37.0,-100.00,NNW,340,5.0,6.0,98,-99.99,,,-99.99,,2013-12-10 12:52:00,
2013-12-10 04:01:00,37.0,37.0,-100.00,NNW,340,5.0,6.0,98,-99.99,,,-99.99,,2013-12-10 13:01:00,
2013-12-10 04:12:00,37.0,37.0,-100.00,NNW,340,5.0,6.0,98,-99.99,,,-99.99,,2013-12-10 13:12:00,
2013-12-10 04:22:00,37.0,37.0,-100.00,NNW,340,5.0,9.0,98,-99.99,,,-99.99,,2013-12-10 13:22:00,
2013-12-10 04:32:00,37.0,37.0,-100.00,NNW,340,5.0,9.0,98,-99.99,,,-99.99,,2013-12-10 13:32:00,
2013-12-10 04:42:00,37.0,37.0,-100.00,NNW,340,5.0,9.0,98,-99.99,,,-99.99,,2013-12-10 13:42:00,
2013-12-10 04:52:00,37.0,37.0,-100.00,North,355,4.0,6.0,98,-99.99,,,-99.99,,2013-12-10 13:52:00,
2013-12-10 05:01:00,37.0,37.0,-100.00,North,355,4.0,6.0,98,-99.99,,,-99.99,,2013-12-10 14:01:00,
2013-12-10 05:11:00,37.0,37.0,-100.00,North,355,4.0,6.0,98,-99.99,,,-99.99,,2013-12-10 14:11:00,
2013-12-10 05:22:00,37.0,37.0,-100.00,North,355,6.0,9.0,98,-99.99,,,-99.99,,2013-12-10 14:22:00,
2013-12-10 05:32:00,37.0,37.0,-100.00,North,355,6.0,9.0,98,-99.99,,,-99.99,,2013-12-10 14:32:00,
2013-12-10 05:42:00,37.0,37.0,-100.00,North,355,6.0,9.0,98,-99.99,,,-99.99,,2013-12-10 14:42:00,
2013-12-10 05:52:00,38.0,37.0,-100.00,NNW,335,6.0,11.0,98,-99.99,,,-99.99,,2013-12-10 14:52:00,
2013-12-10 06:02:00,38.0,37.0,-100.00,NNW,335,6.0,11.0,98,-99.99,,,-99.99,,2013-12-10 15:02:00,
2013-12-10 06:11:00,38.0,37.0,-100.00,NNW,335,6.0,11.0,98,-99.99,,,-99.99,,2013-12-10 15:11:00,
2013-12-10 06:22:00,38.0,37.0,-100.00,NNW,345,9.0,12.0,98,-99.99,,,-99.99,,2013-12-10 15:22:00,
2013-12-10 06:33:00,38.0,37.0,-100.00,NNW,345,9.0,12.0,98,-99.99,,,-99.99,,2013-12-10 15:33:00,
2013-12-10 06:43:00,38.0,37.0,-100.00,NNW,345,9.0,12.0,98,-99.99,,,-99.99,,2013-12-10 15:43:00,
2013-12-10 06:53:00,38.0,38.0,-100.00,NNW,345,7.0,12.0,98,-99.99,,,-99.99,,2013-12-10 15:53:00,
2013-12-10 07:04:00,38.0,38.0,-100.00,NNW,345,7.0,12.0,98,-99.99,,,-99.99,,2013-12-10 16:04:00,
2013-12-10 07:12:00,38.0,38.0,-100.00,NNW,345,7.0,12.0,98,-99.99,,,-99.99,,2013-12-10 16:12:00,
2013-12-10 07:23:00,38.0,38.0,-100.00,North,350,6.0,9.0,98,-99.99,,,-99.99,,2013-12-10 16:23:00,
2013-12-10 07:33:00,38.0,38.0,-100.00,North,350,6.0,9.0,98,-99.99,,,-99.99,,2013-12-10 16:33:00,
2013-12-10 07:43:00,38.0,38.0,-100.00,North,350,6.0,9.0,98,-99.99,,,-99.99,,2013-12-10 16:43:00,
2013-12-10 07:52:00,38.0,38.0,-100.00,North,350,9.0,12.0,98,-99.99,,,-99.99,,2013-12-10 16:52:00,
2013-12-10 08:02:00,38.0,38.0,-100.00,North,350,9.0,12.0,98,-99.99,,,-99.99,,2013-12-10 17:02:00,
2013-12-10 08:12:00,38.0,38.0,-100.00,North,350,9.0,12.0,98,-99.99,,,-99.99,,2013-12-10 17:12:00,
2013-12-10 08:22:00,38.0,38.0,-100.00,North,350,11.0,14.0,98,-99.99,,,-99.99,,2013-12-10 17:22:00,
2013-12-10 08:33:00,38.0,38.0,-100.00,North,350,11.0,14.0,98,-99.99,,,-99.99,,2013-12-10 17:33:00,
2013-12-10 08:42:00,38.0,38.0,-100.00,North,350,11.0,14.0,98,-99.99,,,-99.99,,2013-12-10 17:42:00,
2013-12-10 08:52:00,38.0,38.0,-100.00,North,355,7.0,11.0,98,-99.99,,,-99.99,,2013-12-10 17:52:00,
2013-12-10 09:02:00,38.0,38.0,-100.00,North,355,7.0,11.0,98,-99.99,,,-99.99,,2013-12-10 18:02:00,
2013-12-10 09:11:00,38.0,38.0,-100.00,North,355,7.0,11.0,98,-99.99,,,-99.99,,2013-12-10 18:11:00,
2013-12-10 09:21:00,38.0,38.0,-100.00,North,0,7.0,12.0,98,-99.99,,,-99.99,,2013-12-10 18:21:00,
2013-12-10 09:32:00,38.0,38.0,-100.00,North,0,7.0,12.0,98,-99.99,,,-99.99,,2013-12-10 18:32:00,
2013-12-10 09:42:00,38.0,38.0,-100.00,North,0,7.0,12.0,98,-99.99,,,-99.99,,2013-12-10 18:42:00,
2013-12-10 09:52:00,38.0,38.0,-100.00,NNW,345,9.0,13.0,98,-99.99,,,-99.99,,2013-12-10 18:52:00,
2013-12-10 10:02:00,38.0,38.0,-100.00,NNW,345,9.0,13.0,98,-99.99,,,-99.99,,2013-12-10 19:02:00,
2013-12-10 10:11:00,38.0,38.0,-100.00,NNW,345,9.0,13.0,98,-99.99,,,-99.99,,2013-12-10 19:11:00,
2013-12-10 10:21:00,38.0,38.0,-100.00,North,350,7.0,14.0,98,-99.99,,,-99.99,,2013-12-10 19:21:00,
2013-12-10 10:32:00,38.0,38.0,-100.00,North,350,7.0,14.0,98,-99.99,,,-99.99,,2013-12-10 19:32:00,
2013-12-10 10:42:00,38.0,38.0,-100.00,North,350,7.0,14.0,98,-99.99,,,-99.99,,2013-12-10 19:42:00,
2013-12-10 10:52:00,38.0,38.0,-100.00,North,0,9.0,12.0,98,-99.99,,,-99.99,,2013-12-10 19:52:00,
2013-12-10 11:02:00,38.0,38.0,-100.00,North,0,9.0,12.0,98,-99.99,,,-99.99,,2013-12-10 20:02:00,
2013-12-10 11:11:00,38.0,38.0,-100.00,North,0,9.0,12.0,98,-99.99,,,-99.99,,2013-12-10 20:11:00,
2013-12-10 11:21:00,39.0,38.0,-100.00,North,0,12.0,16.0,98,-99.99,,,-99.99,,2013-12-10 20:21:00,
2013-12-10 11:32:00,39.0,38.0,-100.00,North,0,12.0,16.0,98,-99.99,,,-99.99,,2013-12-10 20:32:00,
2013-12-10 11:42:00,39.0,38.0,-100.00,North,0,12.0,16.0,98,-99.99,,,-99.99,,2013-12-10 20:42:00,
2013-12-10 11:52:00,39.0,38.0,-100.00,North,0,11.0,16.0,98,-99.99,,,-99.99,,2013-12-10 20:52:00,
2013-12-10 12:01:00,39.0,38.0,-100.00,North,0,11.0,16.0,98,-99.99,,,-99.99,,2013-12-10 21:01:00,
2013-12-10 12:12:00,39.0,38.0,-100.00,North,0,11.0,16.0,98,-99.99,,,-99.99,,2013-12-10 21:12:00,
2013-12-10 12:21:00,39.0,38.0,-100.00,North,0,12.0,16.0,98,-99.99,,,-99.99,,2013-12-10 21:21:00,
2013-12-10 12:33:00,39.0,38.0,-100.00,North,0,12.0,16.0,98,-99.99,,,-99.99,,2013-12-10 21:33:00,
2013-12-10 12:43:00,39.0,38.0,-100.00,North,0,12.0,16.0,98,-99.99,,,-99.99,,2013-12-10 21:43:00,
2013-12-10 12:54:00,39.0,38.0,-100.00,North,350,11.0,17.0,98,-99.99,,,-99.99,,2013-12-10 21:54:00,
2013-12-10 13:04:00,39.0,38.0,-100.00,North,350,11.0,17.0,98,-99.99,,,-99.99,,2013-12-10 22:04:00,
2013-12-10 13:13:00,39.0,38.0,-100.00,North,350,11.0,17.0,98,-99.99,,,-99.99,,2013-12-10 22:13:00,
2013-12-10 13:23:00,39.0,38.0,-100.00,NNW,340,9.0,13.0,98,-99.99,,,-99.99,,2013-12-10 22:23:00,
2013-12-10 13:33:00,39.0,38.0,-100.00,NNW,340,9.0,13.0,98,-99.99,,,-99.99,,2013-12-10 22:33:00,
2013-12-10 13:42:00,39.0,38.0,-100.00,NNW,340,9.0,13.0,98,-99.99,,,-99.99,,2013-12-10 22:42:00,
2013-12-10 13:52:00,39.0,38.0,-100.00,North,0,9.0,14.0,98,-99.99,,,-99.99,,2013-12-10 22:52:00,
2013-12-10 14:02:00,39.0,38.0,-100.00,North,0,9.0,14.0,98,-99.99,,,-99.99,,2013-12-10 23:02:00,
2013-12-10 14:12:00,39.0,38.0,-100.00,North,0,9.0,14.0,98,-99.99,,,-99.99,,2013-12-10 23:12:00,
2013-12-10 14:22:00,39.0,38.0,-100.00,North,0,10.0,17.0,98,-99.99,,,-99.99,,2013-12-10 23:22:00,
2013-12-10 14:33:00,39.0,38.0,-100.00,North,0,10.0,17.0,98,-99.99,,,-99.99,,2013-12-10 23:33:00,
2013-12-10 14:42:00,39.0,38.0,-100.00,North,0,10.0,17.0,98,-99.99,,,-99.99,,2013-12-10 23:42:00,
2013-12-10 14:53:00,39.0,38.0,-100.00,North,0,7.0,14.0,98,-99.99,,,-99.99,,2013-12-10 23:53:00,
2013-12-10 15:02:00,39.0,38.0,-100.00,North,0,7.0,14.0,98,-99.99,,,-99.99,,2013-12-11 00:02:00,
2013-12-10 15:11:00,39.0,38.0,-100.00,North,0,7.0,14.0,98,-99.99,,,-99.99,,2013-12-11 00:11:00,
2013-12-10 15:22:00,39.0,38.0,-100.00,North,350,10.0,16.0,98,-99.99,,,-99.99,,2013-12-11 00:22:00,
2013-12-10 15:32:00,39.0,38.0,-100.00,North,350,10.0,16.0,98,-99.99,,,-99.99,,2013-12-11 00:32:00,
2013-12-10 15:42:00,39.0,38.0,-100.00,North,350,10.0,16.0,98,-99.99,,,-99.99,,2013-12-11 00:42:00,
2013-12-10 15:52:00,39.0,39.0,-100.00,North,0,11.0,16.0,98,-99.99,,,-99.99,,2013-12-11 00:52:00,
2013-12-10 16:01:00,39.0,39.0,-100.00,North,0,11.0,16.0,98,-99.99,,,-99.99,,2013-12-11 01:01:00,
2013-12-10 16:11:00,39.0,39.0,-100.00,North,0,11.0,16.0,98,-99.99,,,-99.99,,2013-12-11 01:11:00,
2013-12-10 16:21:00,39.0,38.0,-100.00,North,0,13.0,21.0,99,-99.99,,,-99.99,,2013-12-11 01:21:00,
2013-12-10 16:32:00,39.0,38.0,-100.00,North,0,13.0,21.0,99,-99.99,,,-99.99,,2013-12-11 01:32:00,
2013-12-10 16:42:00,39.0,38.0,-100.00,North,0,13.0,21.0,99,-99.99,,,-99.99,,2013-12-11 01:42:00,
2013-12-10 16:52:00,39.0,38.0,-100.00,North,0,9.0,22.0,99,-99.99,,,-99.99,,2013-12-11 01:52:00,
2013-12-10 17:02:00,39.0,38.0,-100.00,North,0,9.0,22.0,99,-99.99,,,-99.99,,2013-12-11 02:02:00,
2013-12-10 17:11:00,39.0,38.0,-100.00,North,0,9.0,22.0,99,-99.99,,,-99.99,,2013-12-11 02:11:00,
2013-12-10 17:22:00,39.0,39.0,-100.00,North,5,10.0,21.0,99,-99.99,,,-99.99,,2013-12-11 02:22:00,
2013-12-10 17:32:00,39.0,39.0,-100.00,North,5,10.0,21.0,99,-99.99,,,-99.99,,2013-12-11 02:32:00,
2013-12-10 17:42:00,39.0,39.0,-100.00,North,5,10.0,21.0,99,-99.99,,,-99.99,,2013-12-11 02:42:00,
2013-12-10 17:52:00,39.0,39.0,-100.00,North,0,11.0,24.0,99,-99.99,,,-99.99,,2013-12-11 02:52:00,
2013-12-10 18:02:00,39.0,39.0,-100.00,North,0,11.0,24.0,99,-99.99,,,-99.99,,2013-12-11 03:02:00,
2013-12-10 18:11:00,39.0,39.0,-100.00,North,0,11.0,24.0,99,-99.99,,,-99.99,,2013-12-11 03:11:00,
2013-12-10 18:22:00,39.0,39.0,-100.00,North,0,15.0,26.0,99,-99.99,,,-99.99,,2013-12-11 03:22:00,
2013-12-10 18:33:00,39.0,39.0,-100.00,North,0,15.0,26.0,99,-99.99,,,-99.99,,2013-12-11 03:33:00,
2013-12-10 18:43:00,39.0,39.0,-100.00,North,0,15.0,26.0,99,-99.99,,,-99.99,,2013-12-11 03:43:00,
2013-12-10 18:54:00,39.0,39.0,-100.00,North,0,15.0,27.0,99,-99.99,,,-99.99,,2013-12-11 03:54:00,
2013-12-10 19:03:00,39.0,39.0,-100.00,North,0,15.0,27.0,99,-99.99,,,-99.99,,2013-12-11 04:03:00,
2013-12-10 19:13:00,39.0,39.0,-100.00,North,0,15.0,27.0,99,-99.99,,,-99.99,,2013-12-11 04:13:00,
2013-12-10 19:23:00,39.0,39.0,-100.00,North,5,12.0,27.0,99,-99.99,,,-99.99,,2013-12-11 04:23:00,
2013-12-10 19:33:00,39.0,39.0,-100.00,North,5,12.0,27.0,99,-99.99,,,-99.99,,2013-12-11 04:33:00,
2013-12-10 19:43:00,39.0,39.0,-100.00,North,5,12.0,27.0,99,-99.99,,,-99.99,,2013-12-11 04:43:00,
2013-12-10 19:52:00,39.0,39.0,-100.00,North,5,12.0,34.0,99,-99.99,,,-99.99,,2013-12-11 04:52:00,
2013-12-10 20:03:00,39.0,39.0,-100.00,North,5,12.0,34.0,99,-99.99,,,-99.99,,2013-12-11 05:03:00,
2013-12-10 20:12:00,39.0,39.0,-100.00,North,5,12.0,34.0,99,-99.99,,,-99.99,,2013-12-11 05:12:00,
2013-12-10 20:22:00,40.0,39.0,-100.00,North,355,14.0,28.0,99,-99.99,,,-99.99,,2013-12-11 05:22:00,
2013-12-10 20:33:00,40.0,39.0,-100.00,North,355,14.0,28.0,99,-99.99,,,-99.99,,2013-12-11 05:33:00,
2013-12-10 20:43:00,40.0,39.0,-100.00,North,355,14.0,28.0,99,-99.99,,,-99.99,,2013-12-11 05:43:00,
2013-12-10 20:53:00,40.0,39.0,-100.00,North,0,16.0,29.0,99,-99.99,,,-99.99,,2013-12-11 05:53:00,
2013-12-10 21:02:00,40.0,39.0,-100.00,North,0,16.0,29.0,99,-99.99,,,-99.99,,2013-12-11 06:02:00,
2013-12-10 21:12:00,40.0,39.0,-100.00,North,0,16.0,29.0,99,-99.99,,,-99.99,,2013-12-11 06:12:00,
2013-12-10 21:22:00,40.0,39.0,-100.00,North,0,17.0,26.0,99,-99.99,,,-99.99,,2013-12-11 06:22:00,
2013-12-10 21:32:00,40.0,39.0,-100.00,North,0,17.0,26.0,99,-99.99,,,-99.99,,2013-12-11 06:32:00,
2013-12-10 21:42:00,40.0,39.0,-100.00,North,0,17.0,26.0,99,-99.99,,,-99.99,,2013-12-11 06:42:00,
2013-12-10 21:52:00,40.0,39.0,-100.00,North,350,19.0,29.0,99,-99.99,,,-99.99,,2013-12-11 06:52:00,
2013-12-10 22:02:00,40.0,39.0,-100.00,North,350,19.0,29.0,99,-99.99,,,-99.99,,2013-12-11 07:02:00,
2013-12-10 22:11:00,40.0,39.0,-100.00,North,350,19.0,29.0,99,-99.99,,,-99.99,,2013-12-11 07:11:00,
2013-12-10 22:21:00,39.0,39.0,-100.00,NNE,15,15.0,27.0,99,-99.99,,,-99.99,,2013-12-11 07:21:00,
2013-12-10 22:32:00,39.0,39.0,-100.00,NNE,15,15.0,27.0,99,-99.99,,,-99.99,,2013-12-11 07:32:00,
2013-12-10 22:42:00,39.0,39.0,-100.00,NNE,15,15.0,27.0,99,-99.99,,,-99.99,,2013-12-11 07:42:00,
2013-12-10 22:52:00,39.0,39.0,-100.00,North,0,18.0,34.0,98,-99.99,,,-99.99,,2013-12-11 07:52:00,
2013-12-10 23:02:00,39.0,39.0,-100.00,North,0,18.0,34.0,98,-99.99,,,-99.99,,2013-12-11 08:02:00,
2013-12-10 23:11:00,39.0,39.0,-100.00,North,0,18.0,34.0,98,-99.99,,,-99.99,,2013-12-11 08:11:00,
2013-12-10 23:21:00,39.0,39.0,-100.00,North,-999,-999.0,-999.0,98,-99.99,,,-99.99,,2013-12-11 08:21:00,
2013-12-10 23:32:00,39.0,39.0,-100.00,North,-999,-999.0,-999.0,98,-99.99,,,-99.99,,2013-12-11 08:32:00,
2013-12-10 23:42:00,39.0,39.0,-100.00,North,-999,-999.0,-999.0,98,-99.99,,,-99.99,,2013-12-11 08:42:00,
2013-12-10 23:52:00,39.0,39.0,-100.00,North,0,19.0,30.0,97,-99.99,,,-99.99,,2013-12-11 08:52:00,